Location: Six Mile Lake
(44.9000°N, 79.7170°W)
Time: 17:03:56
(UTC-04:00)

O/OREOS (USA 219) - Pass Details

Date: 02 July 2022
Orbit: 621 x 646 km, 72.0° (Epoch: 22 May)

Event Time Altitude Azimuth Distance (km) Brightness Sun altitude
Rises 00:19:06 0° 346° (NNW) 2,963 ? -20.5°
Reaches altitude 10° 00:21:53 10° 3° (N) 2,052 ? -20.6°
Maximum altitude 00:25:23 21° 52° (NE) 1,458 ? -20.8°
Enters shadow 00:28:02 13° 94° (E) 1,823 ? -20.9°
